Flag for Portugal Weather past 2 weeks in Lisbon, Portugal

Now
55 °F

Passing clouds.


Feels Like: 52 °F
Forecast: 47 / 57 °F
Wind: 15 mph from North

Location: Lisbon Portela Airport

Current Time: Dec 27, 2014 at 2:26:17 PM

Latest Report: Dec 27, 2014 at 2:00 PM


Visibility: N/A

Pressure: 30.33 "Hg

Humidity: 72%

Dew point: 46 °F

Location of LisbonLocation

Historic Weather in Lisbon — Graph

°F

Lisbon temperature yesterday

Maximum temperature yesterday: 59 °F (at 2:00 PM)
Minimum temperature yesterday: 39 °F (at 5:30 AM)
Average temperature yesterday: 50 °F

Past Weeks' High & Low Weather Summary

 TemperatureHumidityPressure
High61 °F (Dec 16, 12:00 PM)100% (Dec 12, 1:00 PM)30.54 "Hg (Dec 12, 1:00 PM)
Low37 °F (Dec 20, 6:30 AM)59% (Dec 25, 3:00 PM)29.65 "Hg (Dec 13, 3:30 PM)
Average51 °F86%30.29 "Hg
* Reported Dec 12 1:00 PM — Dec 27 1:00 PM, Lisbon, Weather by CustomWeather, © 2014

Note: Actual official high and low records may vary slightly from our data, if they occured in-between our weather recording intervals... More about our weather records

Advertising

Lisbon weather history for previous 24 hours

 ConditionsComfort  
Time TempWeatherWind HumidityBarometerVisibility
1:00 PM
Dec 27
55 °FPartly sunny.9 mph77%30.39 "HgN/A
12:30 PM55 °FScattered clouds.13 mph77%30.39 "HgN/A
12:00 PM55 °FScattered clouds.7 mph82%30.42 "HgN/A
11:30 AM55 °FScattered clouds.10 mph82%30.42 "HgN/A
11:00 AM55 °FScattered clouds.8 mph82%30.42 "HgN/A
10:30 AM54 °FPassing clouds.9 mph88%30.42 "HgN/A
10:00 AM54 °FPassing clouds.9 mph88%30.42 "HgN/A
9:30 AM52 °FPassing clouds.8 mph94%30.42 "HgN/A
9:00 AM52 °FPassing clouds.6 mph94%30.42 "HgN/A
8:30 AM52 °FPassing clouds.8 mph88%30.42 "HgN/A
8:00 AM50 °FPassing clouds.5 mph94%30.42 "HgN/A
7:30 AM50 °FPassing clouds.6 mph94%30.42 "HgN/A
7:00 AM52 °FPassing clouds.8 mph88%30.42 "HgN/A
6:30 AM52 °FPassing clouds.9 mph88%30.42 "HgN/A
6:00 AM52 °FPassing clouds.8 mph88%30.42 "HgN/A
5:30 AM52 °FPassing clouds.10 mph88%30.39 "HgN/A
5:00 AM50 °FPassing clouds.7 mph94%30.39 "HgN/A
4:30 AM50 °FPassing clouds.7 mph94%30.39 "HgN/A
4:00 AM50 °FPassing clouds.9 mph94%30.42 "HgN/A
3:30 AM52 °FPassing clouds.9 mph88%30.42 "HgN/A
3:00 AM50 °FPassing clouds.10 mph94%30.42 "HgN/A
2:30 AM50 °FPassing clouds.13 mph94%30.42 "HgN/A
2:00 AM50 °FPassing clouds.5 mph94%30.42 "HgN/A
1:30 AM50 °FPassing clouds.5 mph94%30.42 "HgN/A
1:00 AM50 °FPassing clouds.8 mph94%30.45 "HgN/A
12:30 AM52 °FPassing clouds.14 mph94%30.48 "HgN/A
12:00 AM52 °FPassing clouds.10 mph88%30.48 "HgN/A
11:30 PM
Dec 26
52 °FPassing clouds.13 mph88%30.48 "HgN/A
11:00 PM52 °FPassing clouds.10 mph88%30.48 "HgN/A
10:30 PM52 °FClear.9 mph77%30.45 "Hg10 mi
10:00 PM52 °FClear.8 mph77%30.45 "Hg10 mi
9:30 PM52 °FClear.7 mph72%30.45 "Hg10 mi
9:00 PM52 °FClear.8 mph72%30.45 "Hg10 mi
8:30 PM52 °FClear.7 mph77%30.45 "Hg10 mi
8:00 PM52 °FClear.6 mph77%30.45 "Hg10 mi
7:30 PM54 °FClear.7 mph72%30.45 "Hg10 mi
7:00 PM54 °FClear.9 mph72%30.45 "Hg10 mi
6:30 PM54 °FClear.7 mph72%30.45 "Hg10 mi
6:00 PM55 °FClear.5 mph72%30.45 "Hg10 mi
5:30 PM54 °FPassing clouds.5 mph77%30.45 "HgN/A
5:00 PM59 °FPassing clouds.3 mph63%30.45 "HgN/A
4:00 PM59 °FPassing clouds.3 mph63%30.45 "HgN/A
3:30 PM59 °FPassing clouds.5 mph63%30.45 "HgN/A
3:00 PM57 °FSunny.5 mph67%30.45 "Hg10 mi
2:30 PM57 °FSunny.6 mph67%30.45 "Hg10 mi
2:00 PM59 °FPassing clouds.6 mph59%30.45 "HgN/A
Weather by CustomWeather, © 2014

See weather overviewHow to use our weather pages